Terminal Aerodrome Forecast
Issued by NWS Bismarck, ND

Home | Current Version | Previous Version | Text Only | Print | Product List | Glossary Off
Versions: 1 2 3 4 5 6 7 8 9 10 11 12 13

000
FTUS43 KBIS 270940 AAE
TAFISN
TAF AMD
KISN 270940Z 2710/2806 06005KT 6SM BR OVC011
     FM271100 06006KT 3SM -RASN BR OVC015
     FM271400 06009KT 5SM -RA BR OVC025
     FM271600 06011KT P6SM -RA OVC035
     FM280300 05007KT P6SM -RA OVC050=

USA.gov is the U.S. government's official web portal to all federal, state and local government web resources and services.